Regional Weather Roundup
Issued by NWS

Home | Current Version | Previous Version | Text Only | Print | Product List | Glossary On
Versions: 1 2 3 4 5 6 7 8 9 10 11 12 13 14 15 16 17 18 19 20 21 22 23 24 25 26 27 28 29 30 31 32 33 34 35 36 37 38 39 40 41 42 43 44 45 46 47 48 49 50
000
ASUS43 KDTX 242310
RWRMI
MICHIGAN HOURLY REGIONAL WEATHER ROUNDUP
NATIONAL WEATHER SERVICE DETROIT/PONTIAC MI
700 PM EDT THU JUL 24 2014

NOTE: "FAIR" INDICATES FEW OR NO CLOUDS BELOW 12,000 FEET WITH NO
SIGNIFICANT WEATHER AND/OR OBSTRUCTION TO VISIBILITY.

MIZ047>049-052>055-059>063-066>070-074>076-081>083-250000-
SOUTHEAST LOWER MICHIGAN

CITY           SKY/WX    TMP DP  RH WIND       PRES   REMARKS
ADRIAN         MOSUNNY   75  47  36 NE3       30.05F
ALMA           SUNNY     71  47  42 CALM      30.07S
ANN ARBOR      SUNNY     72  47  40 NW6       30.05S
BAD AXE        SUNNY     70  47  43 CALM      30.06S
DETROIT CITY   SUNNY     74  51  44 VRB7      30.04F
DETROIT        MOSUNNY   76  48  37 N7        30.04F
FLINT          PTSUNNY   75  48  38 N6        30.06S
GROSSE ILE     PTSUNNY   73  50  43 E5        30.02F
HILLSDALE      SUNNY     71  49  45 CALM      30.07R
HOWELL         MOSUNNY   71  46  41 CALM      30.06S

CITY           SKY/WX    TMP DP  RH WIND       PRES   REMARKS
JACKSON        CLOUDY    74  51  44 VRB3      30.07R
LAMBERTVILLE   SUNNY     73  50  43 SE5       30.05S
LANSING        SUNNY     73  47  39 NE3       30.07S
LAPEER         NOT AVBL
MASON          MOSUNNY   71  51  49 E3        30.06S
MONROE         MOSUNNY   73  50  43 SE3       30.03S
MT. CLEMENS    MOSUNNY   71  51  50 E10       30.03F
PONTIAC        MOSUNNY   70  47  43 N5        30.05S
PORT HOPE        N/A     67  49  52 CALM      30.04F
PORT HURON     SUNNY     68  48  49 NE7       30.05S
TRI CITIES     CLOUDY    74  49  41 VRB3      30.05F
YPSILANTI      PTSUNNY   79  48  33 CALM      30.05F
$$
MIZ043>046-050>051-056>058-064>065-071>073-077>080-250000-
SOUTHWEST LOWER MICHIGAN

CITY           SKY/WX    TMP DP  RH WIND       PRES   REMARKS
BATTLE CREEK   SUNNY     73  50  44 N5        30.08R
BENTON HARBOR  SUNNY     66  51  58 VRB7      30.11R
BIG RAPIDS     SUNNY     71  49  46 NW5       30.07R
COLDWATER      PTSUNNY   73  50  45 NW6       30.07S
HOLLAND        SUNNY     69  48  47 NW10      30.10R
GRAND RAPIDS   MOSUNNY   74  49  41 CALM      30.07S
KALAMAZOO      MOSUNNY   73  49  42 CALM      30.07S
MARSHALL       MOSUNNY   71  51  48 CALM      30.07R
MUSKEGON       MOSUNNY   69  42  37 NW9       30.10R
$$
MIZ016>042-250000-
NORTHERN LOWER MICHIGAN

CITY           SKY/WX    TMP DP  RH WIND       PRES   REMARKS
ALPENA         MOSUNNY   68  53  58 SE6       30.04S
BEAVER ISLAND  SUNNY     65  52  63 SW8       30.08R
BELLAIRE       SUNNY     69  47  45 NW5       30.07R
CADILLAC       MOSUNNY   69  52  54 W3        30.08R
CHARLEVOIX     SUNNY     67  48  50 W7        30.10S
FRANKFORT      CLEAR     69  46  43 W3        30.09S
GAYLORD        SUNNY     67  47  48 VRB7      30.09R
GRAYLING       PTSUNNY   72  49  44 W3        30.08R
HARBOR SPRINGS SUNNY     66  51  58 W6        30.07S
HOUGHTON LAKE  SUNNY     71  48  43 W6        30.07F
MANISTEE       SUNNY     68  43  40 W9        30.11R
OSCODA         SUNNY     69  47  46 S6        30.04F
PELLSTON       SUNNY     67  49  52 SW9       30.06S
TRAVERSE CITY  MOSUNNY   71  46  40 NW8       30.07R
$$
MIZ007>008-015-250000-
EASTERN UPPER MICHIGAN

CITY           SKY/WX    TMP DP  RH WIND       PRES   REMARKS
KINROSS        SUNNY     66  54  63 NW5       30.04S
MACKINAC ISLAN SUNNY     64  55  70 W9G18     30.05S
NEWBERRY       CLOUDY    69  50  51 N6        30.04R
S. S. MARIE    SUNNY     67  48  50 W9        30.03S
$$
MIZ004>006-011>014-085-250000-
CENTRAL UPPER MICHIGAN

CITY           SKY/WX    TMP DP  RH WIND       PRES   REMARKS
MANISTIQUE     SUNNY     64  52  64 SW9G16    30.06R
ESCANABA       SUNNY     66  52  59 S10       30.04F
MENOMINEE      SUNNY     72  48  43 S14G22    30.03F
SAWYER-GWINN   MOSUNNY   72  50  46 NE8       30.02F
$$
MIZ001>003-009>011-084-250000-
WESTERN UPPER MICHIGAN

CITY           SKY/WX    TMP DP  RH WIND       PRES   REMARKS
IRON MOUNTAIN  MOSUNNY   77  48  35 SW6       30.01F
HOUGHTON       SUNNY     72  49  44 SW8       29.99F
COPPER HARBOR    N/A     67  53  61 N12       29.98F
$$

ABBREVIATIONS USED IN REMARKS
   TC - TEMPERATURE IN CELSIUS
  WCI - WIND CHILL INDEX
   HX - HEAT INDEX
  VSB - VISIBILITY



USA.gov is the U.S. government's official web portal to all federal, state and local government web resources and services.